When you browse on this site, cookies collect data to enhance your experience and personalize the content and advertising you see.
Visit our Privacy Policy to learn more. By continuing to use the site, you agree to this use of cookies and data.
  • In Lithuania
  • List of Countries
  • For 7 days
  • Water Temperature
  • Satellite Maps
  • Weather Map
  • Weather Widgets
  • user-avatar
    Login

    Hourly Weather Aylesbury

    Today, 25 June, Tuesday

    Time Temperature Precipitation Wind Pressure Humidity
    00:00 +19°C° 0 mm 1 mps 756 mmHg 92%
    01:00 +18°C° 1.6 mm 2 mps 755 mmHg 94%
    02:00 +18°C° 1.6 mm 2 mps 755 mmHg 95%
    03:00 +18°C° 1.6 mm 2 mps 754 mmHg 97%
    04:00 +18°C° 6.9 mm 3 mps 754 mmHg 97%
    05:00 +17°C° 6.9 mm 4 mps 754 mmHg 97%
    06:00 +18°C° 0 mm 2 mps 755 mmHg 98%
    07:00 +18°C° 1.2 mm 2 mps 755 mmHg 98%
    08:00 +18°C° 1.2 mm 2 mps 755 mmHg 98%
    09:00 +18°C° 1.2 mm 2 mps 755 mmHg 98%
    10:00 +18°C° 1.1 mm 2 mps 755 mmHg 97%
    11:00 +18°C° 1.1 mm 3 mps 756 mmHg 97%
    12:00 +18°C° 1.1 mm 3 mps 756 mmHg 97%
    13:00 +18°C° 0.1 mm 3 mps 756 mmHg 96%
    14:00 +18°C° 0.1 mm 3 mps 757 mmHg 95%
    15:00 +19°C° 0.1 mm 3 mps 757 mmHg 95%
    16:00 +19°C° 0 mm 3 mps 757 mmHg 95%
    17:00 +19°C° 0 mm 3 mps 757 mmHg 94%
    18:00 +19°C° 0 mm 3 mps 758 mmHg 94%
    19:00 +18°C° 0 mm 3 mps 758 mmHg 95%
    20:00 +18°C° 0 mm 3 mps 759 mmHg 95%
    21:00 +17°C° 0 mm 3 mps 759 mmHg 96%
    22:00 +17°C° 0 mm 3 mps 759 mmHg 95%
    23:00 +17°C° 0 mm 3 mps 760 mmHg 95%

    Tomorrow, 26 June, Wednesday

    Time Temperature Precipitation Wind Pressure Humidity
    00:00 +17°C° 0 mm 3 mps 760 mmHg 95%
    01:00 +16°C° 0 mm 3 mps 760 mmHg 95%
    02:00 +15°C° 0 mm 4 mps 760 mmHg 95%
    03:00 +15°C° 0 mm 4 mps 760 mmHg 95%
    04:00 +15°C° 0 mm 4 mps 761 mmHg 94%
    05:00 +15°C° 0 mm 4 mps 761 mmHg 94%
    06:00 +15°C° 0 mm 5 mps 762 mmHg 93%
    07:00 +15°C° 0 mm 5 mps 762 mmHg 92%
    08:00 +16°C° 0 mm 5 mps 762 mmHg 90%
    09:00 +16°C° 0 mm 5 mps 763 mmHg 89%
    10:00 +16°C° 0 mm 5 mps 763 mmHg 88%
    11:00 +17°C° 0 mm 6 mps 763 mmHg 87%
    12:00 +17°C° 0 mm 6 mps 763 mmHg 86%
    13:00 +17°C° 0 mm 6 mps 763 mmHg 86%
    14:00 +17°C° 0 mm 6 mps 763 mmHg 86%
    15:00 +17°C° 0 mm 6 mps 763 mmHg 86%
    16:00 +16°C° 0 mm 6 mps 763 mmHg 86%
    17:00 +16°C° 0 mm 7 mps 763 mmHg 87%
    18:00 +15°C° 0 mm 7 mps 763 mmHg 87%
    19:00 +14°C° 0 mm 6 mps 763 mmHg 88%
    20:00 +13°C° 0 mm 6 mps 763 mmHg 90%
    21:00 +11°C° 0 mm 6 mps 764 mmHg 91%
    22:00 +11°C° 0 mm 6 mps 764 mmHg 92%
    23:00 +10°C° 0 mm 6 mps 764 mmHg 93%

    Day after tomorrow, 27 June, Thursday

    Time Temperature Precipitation Wind Pressure Humidity
    00:00 +10°C° 0 mm 5 mps 764 mmHg 94%
    01:00 +10°C° 0 mm 6 mps 764 mmHg 93%
    02:00 +9°C° 0 mm 6 mps 764 mmHg 93%
    03:00 +9°C° 0 mm 6 mps 764 mmHg 92%
    04:00 +10°C° 0 mm 6 mps 764 mmHg 90%
    05:00 +10°C° 0 mm 6 mps 764 mmHg 88%
    06:00 +11°C° 0 mm 6 mps 764 mmHg 86%
    07:00 +13°C° 0 mm 6 mps 764 mmHg 82%
    08:00 +14°C° 0 mm 6 mps 764 mmHg 78%
    09:00 +16°C° 0 mm 7 mps 764 mmHg 74%
    10:00 +17°C° 0 mm 7 mps 764 mmHg 73%
    11:00 +18°C° 0 mm 7 mps 764 mmHg 73%
    12:00 +20°C° 0 mm 7 mps 764 mmHg 73%
    13:00 +21°C° 0 mm 7 mps 764 mmHg 74%
    14:00 +21°C° 0 mm 7 mps 764 mmHg 75%
    15:00 +21°C° 0 mm 7 mps 763 mmHg 76%
    16:00 +21°C° 0 mm 7 mps 763 mmHg 78%
    17:00 +20°C° 0 mm 6 mps 763 mmHg 79%
    18:00 +19°C° 0 mm 6 mps 762 mmHg 81%
    19:00 +17°C° 0 mm 6 mps 763 mmHg 83%
    20:00 +15°C° 0 mm 6 mps 763 mmHg 86%
    21:00 +14°C° 0 mm 6 mps 763 mmHg 88%
    22:00 +13°C° 0 mm 6 mps 763 mmHg 89%
    23:00 +11°C° 0 mm 6 mps 762 mmHg 91%

    28 June, Friday

    Time Temperature Precipitation Wind Pressure Humidity
    00:00 +10°C° 0 mm 6 mps 762 mmHg 92%
    01:00 +10°C° 0 mm 5 mps 762 mmHg 93%
    02:00 +9°C° 0 mm 5 mps 762 mmHg 95%
    03:00 +10°C° 0 mm 4 mps 762 mmHg 96%
    04:00 +10°C° 0 mm 5 mps 762 mmHg 95%
    05:00 +10°C° 0 mm 5 mps 761 mmHg 93%
    06:00 +12°C° 0 mm 5 mps 761 mmHg 91%
    07:00 +13°C° 0 mm 6 mps 761 mmHg 87%
    08:00 +15°C° 0 mm 6 mps 761 mmHg 83%
    09:00 +17°C° 0 mm 6 mps 761 mmHg 80%
    10:00 +19°C° 0 mm 6 mps 761 mmHg 77%
    11:00 +20°C° 0 mm 6 mps 760 mmHg 74%
    12:00 +21°C° 0 mm 6 mps 760 mmHg 72%
    13:00 +22°C° 0 mm 6 mps 760 mmHg 71%
    14:00 +22°C° 0 mm 6 mps 760 mmHg 70%
    15:00 +22°C° 0 mm 6 mps 759 mmHg 69%
    16:00 +21°C° 0 mm 6 mps 759 mmHg 71%
    17:00 +20°C° 0 mm 6 mps 759 mmHg 73%
    18:00 +19°C° 0 mm 5 mps 758 mmHg 75%
    19:00 +17°C° 0 mm 5 mps 758 mmHg 76%
    20:00 +15°C° 0 mm 5 mps 758 mmHg 78%
    21:00 +14°C° 0 mm 5 mps 758 mmHg 80%
    22:00 +13°C° 0 mm 4 mps 758 mmHg 83%
    23:00 +13°C° 0 mm 4 mps 758 mmHg 86%

    29 June, Saturday

    Time Temperature Precipitation Wind Pressure Humidity
    00:00 +13°C° 0 mm 4 mps 757 mmHg 88%
    01:00 +13°C° 0 mm 3 mps 757 mmHg 90%
    02:00 +13°C° 0 mm 3 mps 757 mmHg 92%
    03:00 +12°C° 0 mm 3 mps 756 mmHg 93%
    04:00 +14°C° 0 mm 3 mps 756 mmHg 91%
    05:00 +16°C° 0 mm 3 mps 756 mmHg 90%
    06:00 +17°C° 0 mm 3 mps 755 mmHg 88%
    07:00 +18°C° 0 mm 3 mps 755 mmHg 84%
    08:00 +20°C° 0 mm 3 mps 755 mmHg 81%
    09:00 +22°C° 0 mm 3 mps 755 mmHg 77%
    10:00 +23°C° 0 mm 4 mps 754 mmHg 74%
    11:00 +26°C° 0 mm 4 mps 754 mmHg 71%
    12:00 +27°C° 0 mm 4 mps 753 mmHg 68%
    13:00 +27°C° 0 mm 4 mps 753 mmHg 68%
    14:00 +28°C° 0 mm 4 mps 753 mmHg 67%
    15:00 +28°C° 0 mm 4 mps 752 mmHg 67%
    16:00 +27°C° 0 mm 4 mps 752 mmHg 71%
    17:00 +26°C° 0 mm 3 mps 752 mmHg 74%
    18:00 +25°C° 0 mm 3 mps 751 mmHg 78%
    19:00 +24°C° 0 mm 3 mps 751 mmHg 83%
    20:00 +21°C° 0 mm 3 mps 751 mmHg 88%
    21:00 +19°C° 0 mm 3 mps 751 mmHg 93%
    22:00 +19°C° 0 mm 4 mps 751 mmHg 92%
    23:00 +18°C° 0 mm 4 mps 751 mmHg 91%

    30 June, Sunday

    Time Temperature Precipitation Wind Pressure Humidity
    00:00 +17°C° 0 mm 5 mps 751 mmHg 90%
    01:00 +15°C° 0 mm 4 mps 751 mmHg 90%
    02:00 +14°C° 0 mm 4 mps 751 mmHg 91%
    03:00 +12°C° 0 mm 4 mps 751 mmHg 92%
    04:00 +13°C° 0 mm 4 mps 751 mmHg 92%
    05:00 +13°C° 0 mm 4 mps 752 mmHg 92%
    06:00 +14°C° 0 mm 5 mps 752 mmHg 91%
    07:00 +15°C° 0 mm 5 mps 752 mmHg 88%
    08:00 +16°C° 0 mm 5 mps 753 mmHg 85%
    09:00 +17°C° 0 mm 5 mps 753 mmHg 82%
    10:00 +17°C° 0 mm 5 mps 753 mmHg 80%
    11:00 +19°C° 0 mm 6 mps 753 mmHg 79%
    12:00 +19°C° 0 mm 6 mps 753 mmHg 78%
    13:00 +20°C° 0 mm 6 mps 753 mmHg 77%
    14:00 +20°C° 0 mm 6 mps 753 mmHg 76%
    15:00 +21°C° 0 mm 6 mps 753 mmHg 74%
    16:00 +20°C° 0 mm 6 mps 753 mmHg 76%
    17:00 +20°C° 0 mm 6 mps 753 mmHg 77%
    18:00 +19°C° 0 mm 5 mps 753 mmHg 79%
    19:00 +17°C° 0 mm 5 mps 753 mmHg 82%
    20:00 +15°C° 0 mm 4 mps 753 mmHg 86%
    21:00 +14°C° 0 mm 4 mps 754 mmHg 90%
    22:00 +13°C° 0 mm 4 mps 754 mmHg 92%
    23:00 +12°C° 0 mm 4 mps 754 mmHg 94%
    Show more